Weather Roundup
Issued by NWS Springfield, MO

Home | Current Version | Previous Version | Text Only | Print | Product List | Glossary On
Versions: 1 2 3 4 5 6 7 8 9 10 11 12 13 14 15 16 17 18 19 20 21 22 23 24 25 26 27 28 29 30 31 32 33 34 35 36 37 38 39 40 41 42 43 44 45 46 47 48 49 50
000
NZUS99 KSGF 230157
HRRSGF

HOURLY WEATHER
NATIONAL WEATHER SERVICE SPRINGFIELD MO
800 PM CST WED NOV 22 2017

......SGF CWA......

CITY           SKY/WX    TMP DP  RH WIND       PRES   REMARKS
SPRINGFIELD    CLOUDY    30  19  63 CALM      30.24R
JOPLIN         CLOUDY    32  23  69 SE3       30.25S
WEST PLAINS    CLOUDY    29  18  63 CALM      30.24S
ROLLA          PTCLDY    30  18  60 CALM      30.26R
BRANSON        PTCLDY    36  16  44 CALM      30.25R

......SURROUNDING SGF CWA......

CITY           SKY/WX    TMP DP  RH WIND       PRES   REMARKS
CHANUTE        CLEAR     33  21  61 S6        30.24R WCI  28
PARSONS        CLOUDY    29  23  78 CALM      30.25S
COFFEYVILLE    CLOUDY    35  22  58 CALM      30.25S
EMPORIA        CLEAR     32  17  54 S8        30.20S WCI  25
HARRISON AR    CLOUDY    33  18  53 CALM      30.24S

......KANSAS AND MISSOURI......

CITY           SKY/WX    TMP DP  RH WIND       PRES   REMARKS
KANSAS CTY INT MOCLDY    33  19  56 S9        30.19F WCI  25
SEDALIA        CLOUDY    33  18  53 S5        30.25F WCI  29
ST JOSEPH      PTCLDY    34  19  54 S6        30.19F WCI  29
ST LOUIS       CLOUDY    36  20  52 S5        30.26F WCI  32
WICHITA        PTCLDY    36  22  56 S9        30.19F WCI  29
TOPEKA         CLEAR     36  19  50 S3        30.20S
OLATHE         CLEAR     33  20  58 S3        30.22R

......TENNESSEE......

CITY           SKY/WX    TMP DP  RH WIND       PRES   REMARKS
MEMPHIS        NOT AVBL
NASHVILLE      CLEAR     39  23  52 N5        30.25R

......ARKANSAS.......

CITY           SKY/WX    TMP DP  RH WIND       PRES   REMARKS
FAYETTEVILLE   CLOUDY    30  24  78 CALM      30.24F
FT SMITH       CLEAR     39  26  59 W8        30.25F WCI  33
LITTLE ROCK    CLEAR     36  26  67 CALM      30.27F

......OKLAHOMA.......

CITY           SKY/WX    TMP DP  RH WIND       PRES   REMARKS
TULSA          CLEAR     38  22  52 S3        30.26F
MCALESTER      CLOUDY    32  24  72 CALM      30.27F
OKLAHOMA CITY  CLOUDY    36  20  52 S6        30.24F WCI  31

......IOWA............

CITY           SKY/WX    TMP DP  RH WIND       PRES   REMARKS
DES MOINES     NOT AVBL
QUAD CITIES    CLOUDY    34  16  47 S6        30.21R WCI  29

......ILLINOIS........

CITY           SKY/WX    TMP DP  RH WIND       PRES   REMARKS
QUINCY         NOT AVBL
CHICAGO        CLOUDY    32  18  56 SW7       30.22F WCI  26




USA.gov is the U.S. government's official web portal to all federal, state and local government web resources and services.